User: anonymous   Login
Location: Unspecified
(0.0000°N, 0.0000°E)
Time: 04:15:12
(UTC+00:00)
Language:

STARLINK-32236 - Orbit

View from above orbital plane
View from above orbital plane
View from above satellite
View from above satellite

Ground track
Ground track

The orbit is defined by the following mean orbital elements,

1 60418U          26145.54311503 +.00000000 +00000-0 +44730-4 0 00004
2 60418  53.1610 245.1537 0001232  80.4338 279.6804 15.34390456    04
Epoch (UTC): 25 May 2026 13:02:05
Eccentricity: 0.0001232
inclination: 53.1610°
perigee height: 462 km
apogee height: 464 km
right ascension of ascending node: 245.1537°
argument of perigee: 80.4338°
revolutions per day: 15.34390456
mean anomaly at epoch: 279.6804°

The dashed part of the orbit path shows where the satellite is in the earth's shadow,  

DLR